SAS3382 ESSA-EPWA

Flight info

Callsign SAS3382
Flight time 1h 29m
Altitude 35000
Route BABAP T316 NEPVA DCT PENOR DCT LASGU DCT SORIX
Aircraft A320/M-SDE3FGHIRWY/LB1

Departure

Time 2026-05-06 13:59
Airport Stockholm-Arlanda Airport (ESSA)

Arrival

Time 2026-05-06 15:28
Airport Warsaw Chopin Airport (EPWA)
Time Latitude Longitude Altitude Speed Heading
2026-05-06 13:30 59.65317 17.93568 112 ft 0 kts 76°
2026-05-06 13:42 59.65317 17.93567 112 ft 1 kts 76°
2026-05-06 13:43 59.65311 17.93521 112 ft 4 kts 72°
2026-05-06 13:43 59.65301 17.93472 111 ft 4 kts 60°
2026-05-06 13:43 59.65285 17.93434 111 ft 4 kts 17°
2026-05-06 13:43 59.65275 17.93431 111 ft 0 kts 347°
2026-05-06 13:49 59.65282 17.93428 111 ft 2 kts 347°
2026-05-06 13:49 59.65304 17.93418 110 ft 4 kts 347°
2026-05-06 13:49 59.65311 17.93415 111 ft 2 kts 347°
2026-05-06 13:49 59.65333 17.93405 112 ft 4 kts 347°
2026-05-06 13:50 59.65371 17.93387 112 ft 7 kts 347°
2026-05-06 13:50 59.65420 17.93364 112 ft 7 kts 346°
2026-05-06 13:50 59.65478 17.93344 112 ft 10 kts 356°
2026-05-06 13:50 59.65550 17.93330 111 ft 12 kts 348°
2026-05-06 13:51 59.65643 17.93332 109 ft 16 kts 37°
2026-05-06 13:51 59.65700 17.93444 110 ft 0 kts 47°
2026-05-06 13:52 59.65700 17.93445 110 ft 0 kts 49°
2026-05-06 13:53 59.65699 17.93458 110 ft 3 kts 89°
2026-05-06 13:53 59.65685 17.93449 107 ft 5 kts 221°
2026-05-06 13:53 59.65648 17.93374 108 ft 13 kts 226°
2026-05-06 13:53 59.65607 17.93219 109 ft 16 kts 256°
2026-05-06 13:54 59.65579 17.93001 109 ft 15 kts 256°
2026-05-06 13:54 59.65552 17.92787 108 ft 18 kts 255°
2026-05-06 13:54 59.65548 17.92534 104 ft 20 kts 308°
2026-05-06 13:54 59.65656 17.92466 103 ft 17 kts 346°
2026-05-06 13:55 59.65778 17.92433 105 ft 18 kts
2026-05-06 13:55 59.65885 17.92462 107 ft 14 kts
2026-05-06 13:55 59.65848 17.92448 107 ft 0 kts 11°
2026-05-06 13:55 59.65854 17.92450 107 ft 2 kts 11°
2026-05-06 13:56 59.65886 17.92449 105 ft 7 kts 335°
2026-05-06 13:56 59.65915 17.92348 110 ft 10 kts 283°
2026-05-06 13:56 59.65926 17.92192 114 ft 12 kts 271°
2026-05-06 13:56 59.65891 17.92105 112 ft 0 kts 196°
2026-05-06 13:58 59.65812 17.92075 112 ft 37 kts 188°
2026-05-06 13:58 59.65326 17.91899 105 ft 103 kts 191°
2026-05-06 13:58 59.64453 17.91572 111 ft 150 kts 192°
2026-05-06 13:58 59.63399 17.91154 589 ft 152 kts 191°
2026-05-06 13:59 59.62361 17.90843 1213 ft 154 kts 187°
2026-05-06 13:59 59.61194 17.90605 1403 ft 183 kts 184°
2026-05-06 13:59 59.59873 17.90455 1579 ft 192 kts 182°
2026-05-06 13:59 59.58439 17.90401 1762 ft 223 kts 180°
2026-05-06 14:00 59.56839 17.90815 2407 ft 231 kts 157°
2026-05-06 14:00 59.55568 17.92602 3615 ft 223 kts 136°
2026-05-06 14:00 59.54493 17.94816 4480 ft 226 kts 131°
2026-05-06 14:00 59.53819 17.97626 4901 ft 232 kts 94°
2026-05-06 14:01 59.54155 18.00763 4999 ft 252 kts 57°
2026-05-06 14:01 59.55362 18.03415 5009 ft 267 kts 41°
2026-05-06 14:01 59.56752 18.05894 5007 ft 270 kts 40°
2026-05-06 14:01 59.58171 18.08325 5007 ft 270 kts 39°
2026-05-06 14:02 59.59593 18.10754 5007 ft 270 kts 40°
2026-05-06 14:02 59.60886 18.13457 5006 ft 272 kts 51°
2026-05-06 14:02 59.61879 18.16652 5449 ft 275 kts 64°
2026-05-06 14:02 59.62570 18.20179 6458 ft 276 kts 70°
2026-05-06 14:03 59.63206 18.23780 7323 ft 280 kts 70°
2026-05-06 14:03 59.63853 18.27447 8148 ft 285 kts 70°
2026-05-06 14:03 59.64502 18.31141 8942 ft 291 kts 70°
2026-05-06 14:03 59.64869 18.35150 9746 ft 298 kts 91°
2026-05-06 14:04 59.64426 18.39171 10220 ft 314 kts 116°
2026-05-06 14:04 59.63061 18.42653 10440 ft 331 kts 144°
2026-05-06 14:04 59.60951 18.44600 10666 ft 343 kts 173°
2026-05-06 14:04 59.58568 18.45089 11220 ft 348 kts 179°
2026-05-06 14:05 59.56125 18.45502 11907 ft 353 kts 179°
2026-05-06 14:05 59.53663 18.45937 12600 ft 357 kts 179°
2026-05-06 14:05 59.51179 18.46382 13291 ft 361 kts 179°
2026-05-06 14:05 59.48665 18.46833 13945 ft 364 kts 179°
2026-05-06 14:06 59.46131 18.47290 14581 ft 366 kts 179°
2026-05-06 14:06 59.43614 18.47746 15215 ft 368 kts 179°
2026-05-06 14:06 59.41067 18.48207 15877 ft 368 kts 179°
2026-05-06 14:06 59.38567 18.48658 16522 ft 369 kts 180°
2026-05-06 14:07 59.36002 18.49114 17201 ft 367 kts 180°
2026-05-06 14:07 59.33460 18.49568 17780 ft 372 kts 180°
2026-05-06 14:07 59.31008 18.50001 18380 ft 374 kts 180°
2026-05-06 14:07 59.28401 18.50461 18958 ft 377 kts 181°
2026-05-06 14:08 59.25782 18.50917 19543 ft 379 kts 181°
2026-05-06 14:08 59.24035 18.51219 19931 ft 381 kts 181°
2026-05-06 14:08 59.21380 18.51680 20519 ft 384 kts 182°
2026-05-06 14:08 59.17837 18.52304 21253 ft 387 kts 182°
2026-05-06 14:09 59.16014 18.52624 21608 ft 389 kts 182°
2026-05-06 14:09 59.13309 18.53093 22098 ft 391 kts 182°
2026-05-06 14:09 59.10590 18.53561 22610 ft 393 kts 182°
2026-05-06 14:09 59.07856 18.54036 23114 ft 395 kts 182°
2026-05-06 14:10 59.05142 18.54510 23586 ft 398 kts 182°
2026-05-06 14:10 59.02341 18.54997 23993 ft 400 kts 182°
2026-05-06 14:10 58.99605 18.55471 24403 ft 401 kts 182°
2026-05-06 14:10 58.96824 18.55952 24827 ft 401 kts 182°
2026-05-06 14:11 58.94046 18.56303 25243 ft 397 kts 187°
2026-05-06 14:11 58.91323 18.55865 25647 ft 390 kts 196°
2026-05-06 14:11 58.88693 18.54707 26045 ft 388 kts 199°
2026-05-06 14:11 58.86070 18.53467 26457 ft 388 kts 199°
2026-05-06 14:12 58.83439 18.52232 26822 ft 389 kts 199°
2026-05-06 14:12 58.80793 18.50990 27167 ft 392 kts 198°
2026-05-06 14:12 58.78144 18.49749 27530 ft 393 kts 198°
2026-05-06 14:12 58.75474 18.48506 27904 ft 395 kts 198°
2026-05-06 14:13 58.72800 18.47268 28271 ft 396 kts 198°
2026-05-06 14:13 58.70114 18.46031 28633 ft 397 kts 198°
2026-05-06 14:13 58.67423 18.44792 28981 ft 398 kts 198°
2026-05-06 14:13 58.64721 18.43549 29319 ft 400 kts 198°
2026-05-06 14:14 58.62013 18.42308 29643 ft 401 kts 198°
2026-05-06 14:14 58.59294 18.41063 29947 ft 402 kts 198°
2026-05-06 14:14 58.56571 18.39813 30210 ft 403 kts 198°
2026-05-06 14:14 58.53863 18.38575 30353 ft 407 kts 197°
2026-05-06 14:15 58.51070 18.37299 30598 ft 407 kts 197°
2026-05-06 14:15 58.48315 18.36041 30917 ft 406 kts 197°
2026-05-06 14:15 58.45607 18.34806 31243 ft 405 kts 197°
2026-05-06 14:15 58.42873 18.33566 31600 ft 403 kts 197°
2026-05-06 14:16 58.40157 18.32333 31955 ft 401 kts 197°
2026-05-06 14:16 58.37443 18.31101 32309 ft 399 kts 197°
2026-05-06 14:16 58.34750 18.29878 32665 ft 398 kts 197°
2026-05-06 14:16 58.32064 18.28660 33022 ft 396 kts 197°
2026-05-06 14:17 58.29387 18.27447 33382 ft 394 kts 197°
2026-05-06 14:17 58.26723 18.26243 33660 ft 394 kts 196°
2026-05-06 14:17 58.24052 18.25038 33961 ft 394 kts 196°
2026-05-06 14:17 58.21391 18.23837 34242 ft 394 kts 196°
2026-05-06 14:18 58.18725 18.22636 34479 ft 394 kts 196°
2026-05-06 14:18 58.16041 18.21433 34706 ft 396 kts 197°
2026-05-06 14:18 58.13353 18.20233 34931 ft 397 kts 197°
2026-05-06 14:18 58.10663 18.19036 35149 ft 399 kts 197°
2026-05-06 14:19 58.07957 18.17833 35361 ft 400 kts 197°
2026-05-06 14:19 58.05243 18.16628 35562 ft 401 kts 197°
2026-05-06 14:19 58.02520 18.15417 35769 ft 403 kts 197°
2026-05-06 14:19 57.99787 18.14202 35939 ft 405 kts 196°
2026-05-06 14:20 57.94277 18.11761 35996 ft 407 kts 196°
2026-05-06 14:20 57.88758 18.09327 35997 ft 408 kts 196°
2026-05-06 14:21 57.83263 18.06911 35995 ft 408 kts 196°
2026-05-06 14:21 57.77739 18.04491 35997 ft 408 kts 196°
2026-05-06 14:22 57.72209 18.02070 35972 ft 408 kts 196°
2026-05-06 14:22 57.66672 17.99651 35978 ft 409 kts 195°
2026-05-06 14:23 57.61124 17.97245 35976 ft 410 kts 195°
2026-05-06 14:23 57.55563 17.94837 35983 ft 410 kts 195°
2026-05-06 14:24 57.49999 17.92432 35989 ft 411 kts 195°
2026-05-06 14:24 57.44430 17.90034 35993 ft 411 kts 195°
2026-05-06 14:25 57.38891 17.87674 35987 ft 411 kts 195°
2026-05-06 14:25 57.33324 17.85292 35989 ft 411 kts 195°
2026-05-06 14:26 57.27747 17.82917 35990 ft 411 kts 195°
2026-05-06 14:26 57.22174 17.80526 35989 ft 411 kts 195°
2026-05-06 14:27 57.16597 17.78156 35967 ft 412 kts 195°
2026-05-06 14:27 57.11002 17.75802 35969 ft 413 kts 195°
2026-05-06 14:28 57.05398 17.73447 35971 ft 413 kts 195°
2026-05-06 14:28 56.99792 17.71086 35974 ft 413 kts 195°
2026-05-06 14:29 56.94174 17.68745 35964 ft 414 kts 195°
2026-05-06 14:29 56.88555 17.66389 35960 ft 415 kts 195°
2026-05-06 14:30 56.82945 17.64038 35963 ft 416 kts 195°
2026-05-06 14:30 56.77290 17.61702 35960 ft 416 kts 195°
2026-05-06 14:31 56.71623 17.59370 35967 ft 417 kts 195°
2026-05-06 14:31 56.65969 17.57040 35949 ft 418 kts 194°
2026-05-06 14:32 56.60324 17.54709 35950 ft 419 kts 194°
2026-05-06 14:32 56.54631 17.52367 35952 ft 420 kts 194°
2026-05-06 14:33 56.48930 17.50053 35954 ft 420 kts 194°
2026-05-06 14:33 56.43229 17.47732 35960 ft 420 kts 194°
2026-05-06 14:34 56.37508 17.45400 35949 ft 421 kts 194°
2026-05-06 14:34 56.31789 17.43091 35948 ft 422 kts 194°
2026-05-06 14:35 56.26053 17.40783 35960 ft 422 kts 194°
2026-05-06 14:35 56.20316 17.38476 35943 ft 422 kts 194°
2026-05-06 14:36 56.14578 17.36178 35937 ft 423 kts 194°
2026-05-06 14:36 56.08827 17.33876 35936 ft 424 kts 194°
2026-05-06 14:37 56.03089 17.31587 35937 ft 425 kts 193°
2026-05-06 14:37 55.97315 17.29298 35934 ft 425 kts 193°
2026-05-06 14:38 55.91534 17.27008 35939 ft 426 kts 194°
2026-05-06 14:38 55.85750 17.24720 35936 ft 426 kts 194°
2026-05-06 14:39 55.79948 17.22435 35932 ft 427 kts 194°
2026-05-06 14:39 55.74144 17.20160 35936 ft 427 kts 193°
2026-05-06 14:40 55.68322 17.17982 35936 ft 428 kts 188°
2026-05-06 14:40 55.62359 17.18410 35925 ft 434 kts 169°
2026-05-06 14:41 55.56738 17.22446 35915 ft 440 kts 156°
2026-05-06 14:41 55.51299 17.27271 35919 ft 441 kts 156°
2026-05-06 14:42 55.45803 17.32103 35912 ft 441 kts 156°
2026-05-06 14:42 55.40299 17.36920 35908 ft 442 kts 157°
2026-05-06 14:43 55.34789 17.41729 35893 ft 442 kts 157°
2026-05-06 14:43 55.29281 17.46533 35890 ft 443 kts 158°
2026-05-06 14:44 55.23747 17.51336 35884 ft 443 kts 158°
2026-05-06 14:45 55.15436 17.58516 35894 ft 444 kts 158°
2026-05-06 14:45 55.09929 17.63272 35886 ft 444 kts 158°
2026-05-06 14:46 55.04347 17.68087 35889 ft 444 kts 158°
2026-05-06 14:46 54.98800 17.72842 35866 ft 445 kts 158°
2026-05-06 14:47 54.93276 17.77561 35852 ft 445 kts 159°
2026-05-06 14:47 54.87710 17.82297 35868 ft 445 kts 159°
2026-05-06 14:48 54.82142 17.87014 35868 ft 446 kts 159°
2026-05-06 14:48 54.76563 17.91730 35864 ft 446 kts 159°
2026-05-06 14:49 54.70990 17.96437 35867 ft 446 kts 159°
2026-05-06 14:49 54.65407 18.01135 35865 ft 446 kts 159°
2026-05-06 14:50 54.59828 18.05811 35839 ft 445 kts 159°
2026-05-06 14:50 54.54246 18.10477 35849 ft 445 kts 159°
2026-05-06 14:51 54.48705 18.15105 35849 ft 445 kts 159°
2026-05-06 14:51 54.43162 18.19709 35852 ft 445 kts 159°
2026-05-06 14:52 54.37577 18.24327 35839 ft 445 kts 159°
2026-05-06 14:52 54.31995 18.28931 35848 ft 445 kts 159°
2026-05-06 14:53 54.26414 18.33532 35845 ft 445 kts 159°
2026-05-06 14:53 54.20886 18.38075 35827 ft 445 kts 160°
2026-05-06 14:54 54.15345 18.42613 35828 ft 444 kts 160°
2026-05-06 14:54 54.09770 18.47157 35802 ft 444 kts 160°
2026-05-06 14:55 54.04192 18.51683 35807 ft 444 kts 160°
2026-05-06 14:55 53.98602 18.56218 35800 ft 444 kts 160°
2026-05-06 14:56 53.93029 18.60731 35796 ft 443 kts 160°
2026-05-06 14:56 53.87452 18.65234 35760 ft 443 kts 160°
2026-05-06 14:57 53.81929 18.69676 35786 ft 442 kts 161°
2026-05-06 14:57 53.76374 18.74125 35775 ft 441 kts 161°
2026-05-06 14:58 53.70830 18.78565 35784 ft 440 kts 161°
2026-05-06 14:58 53.65295 18.82983 35779 ft 440 kts 161°
2026-05-06 14:59 53.60691 18.86638 35777 ft 439 kts 161°
2026-05-06 14:59 53.55164 18.91011 35776 ft 439 kts 161°
2026-05-06 15:00 53.49634 18.95378 35750 ft 439 kts 161°
2026-05-06 15:00 53.44090 18.99747 35735 ft 440 kts 161°
2026-05-06 15:01 53.38533 19.04120 35742 ft 441 kts 161°
2026-05-06 15:01 53.32973 19.08481 35750 ft 442 kts 161°
2026-05-06 15:02 53.27401 19.12832 35760 ft 442 kts 161°
2026-05-06 15:02 53.21869 19.17211 35765 ft 445 kts 157°
2026-05-06 15:03 53.16733 19.23223 35713 ft 453 kts 149°
2026-05-06 15:03 53.11702 19.29576 35725 ft 454 kts 149°
2026-05-06 15:04 53.06656 19.35923 35727 ft 454 kts 149°
2026-05-06 15:04 53.04143 19.39076 35160 ft 452 kts 150°
2026-05-06 15:04 53.01626 19.42225 34457 ft 453 kts 150°
2026-05-06 15:04 52.99108 19.45369 33758 ft 453 kts 150°
2026-05-06 15:05 52.96592 19.48510 32936 ft 453 kts 150°
2026-05-06 15:05 52.94071 19.51656 32115 ft 453 kts 150°
2026-05-06 15:05 52.91551 19.54796 31283 ft 452 kts 150°
2026-05-06 15:05 52.89033 19.57928 30410 ft 452 kts 150°
2026-05-06 15:06 52.86527 19.61039 29547 ft 450 kts 150°
2026-05-06 15:06 52.84012 19.64147 28428 ft 452 kts 150°
2026-05-06 15:06 52.81486 19.67263 27245 ft 456 kts 149°
2026-05-06 15:06 52.78932 19.70410 26143 ft 458 kts 149°
2026-05-06 15:07 52.76436 19.73486 25724 ft 446 kts 149°
2026-05-06 15:07 52.74005 19.76499 25595 ft 428 kts 149°
2026-05-06 15:07 52.71680 19.79396 25466 ft 413 kts 147°
2026-05-06 15:07 52.69603 19.82646 25185 ft 411 kts 136°
2026-05-06 15:08 52.67949 19.86528 24764 ft 414 kts 125°
2026-05-06 15:08 52.66524 19.90636 24311 ft 412 kts 125°
2026-05-06 15:08 52.65108 19.94726 23872 ft 409 kts 125°
2026-05-06 15:08 52.63701 19.98788 23460 ft 407 kts 124°
2026-05-06 15:09 52.62298 20.02818 23018 ft 404 kts 125°
2026-05-06 15:09 52.60899 20.06819 22556 ft 402 kts 125°
2026-05-06 15:09 52.59510 20.10788 22099 ft 399 kts 125°
2026-05-06 15:09 52.58131 20.14722 21638 ft 396 kts 125°
2026-05-06 15:10 52.56757 20.18633 21171 ft 393 kts 125°
2026-05-06 15:10 52.55394 20.22511 20704 ft 390 kts 125°
2026-05-06 15:10 52.54064 20.26292 20487 ft 381 kts 125°
2026-05-06 15:10 52.52761 20.29995 20353 ft 368 kts 126°
2026-05-06 15:11 52.51498 20.33582 20226 ft 357 kts 126°
2026-05-06 15:11 52.50272 20.37071 19950 ft 351 kts 126°
2026-05-06 15:11 52.49063 20.40532 19609 ft 348 kts 126°
2026-05-06 15:11 52.47867 20.43969 19252 ft 346 kts 125°
2026-05-06 15:12 52.46678 20.47394 18884 ft 344 kts 125°
2026-05-06 15:12 52.45494 20.50797 18520 ft 343 kts 126°
2026-05-06 15:12 52.44317 20.54181 18167 ft 341 kts 126°
2026-05-06 15:12 52.43141 20.57547 17774 ft 339 kts 126°
2026-05-06 15:13 52.41969 20.60887 17409 ft 337 kts 126°
2026-05-06 15:13 52.40803 20.64197 17050 ft 335 kts 126°
2026-05-06 15:13 52.39643 20.67488 16677 ft 332 kts 126°
2026-05-06 15:13 52.38492 20.70754 16313 ft 330 kts 126°
2026-05-06 15:14 52.37347 20.74002 15963 ft 328 kts 126°
2026-05-06 15:14 52.36210 20.77224 15600 ft 325 kts 125°
2026-05-06 15:14 52.35098 20.80377 15274 ft 323 kts 125°
2026-05-06 15:14 52.33965 20.83591 14939 ft 321 kts 125°
2026-05-06 15:15 52.32871 20.86691 14608 ft 318 kts 125°
2026-05-06 15:15 52.31765 20.89816 14277 ft 316 kts 126°
2026-05-06 15:15 52.30665 20.92912 13950 ft 314 kts 126°
2026-05-06 15:15 52.29571 20.95980 13633 ft 312 kts 126°
2026-05-06 15:16 52.28481 20.99032 13278 ft 310 kts 126°
2026-05-06 15:16 52.27266 21.01888 12897 ft 303 kts 138°
2026-05-06 15:16 52.25687 21.04071 12516 ft 294 kts 153°
2026-05-06 15:16 52.23904 21.05659 12131 ft 291 kts 158°
2026-05-06 15:17 52.22111 21.07199 11753 ft 291 kts 158°
2026-05-06 15:17 52.20319 21.08738 11386 ft 291 kts 158°
2026-05-06 15:17 52.18554 21.10261 11230 ft 283 kts 158°
2026-05-06 15:17 52.16842 21.11745 11102 ft 274 kts 158°
2026-05-06 15:18 52.15184 21.13178 10960 ft 266 kts 158°
2026-05-06 15:18 52.13553 21.14593 10577 ft 269 kts 157°
2026-05-06 15:18 52.11875 21.16053 10067 ft 277 kts 157°
2026-05-06 15:18 52.10154 21.17553 9549 ft 284 kts 157°
2026-05-06 15:19 52.08394 21.19091 9007 ft 290 kts 157°
2026-05-06 15:19 52.06599 21.20658 8461 ft 296 kts 156°
2026-05-06 15:19 52.04772 21.22255 7922 ft 300 kts 156°
2026-05-06 15:19 52.02922 21.23873 7392 ft 304 kts 156°
2026-05-06 15:20 52.01055 21.25508 6739 ft 307 kts 155°
2026-05-06 15:20 51.99152 21.27279 6056 ft 318 kts 154°
2026-05-06 15:20 51.97183 21.28869 5476 ft 315 kts 165°
2026-05-06 15:20 51.95052 21.29110 4757 ft 313 kts 194°
2026-05-06 15:21 51.93116 21.27580 4026 ft 312 kts 223°
2026-05-06 15:21 51.91857 21.24831 3333 ft 300 kts 243°
2026-05-06 15:21 51.91384 21.21731 3063 ft 277 kts 272°
2026-05-06 15:21 51.92001 21.18938 2989 ft 254 kts 304°
2026-05-06 15:22 51.93200 21.17130 2988 ft 224 kts 326°
2026-05-06 15:22 51.94558 21.15924 3003 ft 222 kts 328°
2026-05-06 15:22 51.95850 21.14792 3024 ft 200 kts 328°
2026-05-06 15:22 51.96989 21.13806 3014 ft 170 kts 327°
2026-05-06 15:23 51.97982 21.12946 3009 ft 156 kts 327°
2026-05-06 15:23 51.98925 21.12125 3001 ft 151 kts 327°
2026-05-06 15:23 51.99847 21.11320 3004 ft 149 kts 326°
2026-05-06 15:23 52.00758 21.10522 3003 ft 148 kts 327°
2026-05-06 15:24 52.01663 21.09730 3007 ft 148 kts 325°
2026-05-06 15:24 52.02570 21.08936 3003 ft 148 kts 327°
2026-05-06 15:24 52.03477 21.08145 2996 ft 148 kts 326°
2026-05-06 15:24 52.04389 21.07372 2865 ft 147 kts 328°
2026-05-06 15:25 52.05318 21.06677 2684 ft 147 kts 331°
2026-05-06 15:25 52.06251 21.06025 2539 ft 145 kts 328°
2026-05-06 15:25 52.07145 21.05277 2409 ft 145 kts 323°
2026-05-06 15:25 52.07983 21.04381 2268 ft 145 kts 320°
2026-05-06 15:26 52.08857 21.03543 2015 ft 145 kts 324°
2026-05-06 15:26 52.09738 21.02751 1706 ft 144 kts 326°
2026-05-06 15:26 52.10595 21.01939 1516 ft 141 kts 322°
2026-05-06 15:26 52.11453 21.01118 1338 ft 144 kts 326°
2026-05-06 15:27 52.12358 21.00419 1116 ft 143 kts 330°
2026-05-06 15:27 52.13228 20.99642 924 ft 142 kts 326°
2026-05-06 15:27 52.14085 20.98869 719 ft 140 kts 329°
2026-05-06 15:27 52.14948 20.98132 488 ft 139 kts 328°
2026-05-06 15:28 52.15675 20.97513 370 ft 139 kts 327°
2026-05-06 15:28 52.16091 20.97139 341 ft 90 kts 332°
2026-05-06 15:28 52.16461 20.96828 335 ft 26 kts 329°